Weather History for Whiteman AFB, MO

Change the Weather History Date:

Saturday, September 21, 2013

  Actual Average Record
Temperature  
Mean Temperature 60 °F -  
Max Temperature 72 °F 75 °F 88 °F (2007)
Min Temperature 49 °F 54 °F 41 °F (1999)
Degree Days  
Heating Degree Days 4    
Growing Degree Days 10 (Base 50)    
Moisture  
Dew Point 50 °F    
Average Humidity 74    
Maximum Humidity 99    
Minimum Humidity 40    
Precipitation  
Precipitation 0.00 in - - ()
Sea Level Pressure  
Sea Level Pressure 29.99 in    
Wind  
Wind Speed 4 mph (NW)    
Max Wind Speed 10 mph    
Max Gust Speed -    
Visibility 10 miles    
Events      
Averages and records for this station are not official NWS values.
T = Trace of Precipitation, MM = Missing Value Source: NWS Daily Summary

Daily Weather History Graph

Daily Weather History Graph

Search for Another Location

Airport:

Trip Planner

Search our weather history database for the weather conditions in past years. The results will help you decide how hot, cold, wet, or windy it might be!

Date:

Astronomy

Sep. 21, 2013 Rise Set
Actual Time 7:01 AM CDT 7:12 PM CDT
Civil Twilight 6:34 AM CDT 7:38 PM CDT
Nautical Twilight 6:03 AM CDT 8:09 PM CDT
Astronomical Twilight 5:31 AM CDT 8:41 PM CDT
Moon 8:25 PM CDT (9/21) 9:18 AM CDT (9/21)
Length of Visible Light 13h 04m
Length of Day
12h 11m
Waning Gibbous, 94% of the Moon is Illuminated
Sep 21
Waning Gibbous
Sep 26
Last Quarter
Oct 4
New
Oct 11
First Quarter
Oct 18
Full

Hourly Weather History & Observations

Time (CDT) Temp. Dew Point Humidity Pressure Visibility Wind Dir Wind Speed Gust Speed Precip Events Conditions
12:58 AM 55.0 °F 52.2 °F 90% 29.98 in 10.0 mi Variable 1.2 mph - N/A   Clear
1:58 AM 54.5 °F 52.2 °F 92% 29.99 in 10.0 mi WSW 2.3 mph - N/A   Clear
2:58 AM 53.2 °F 52.2 °F 96% 29.98 in 10.0 mi West 2.3 mph - N/A   Clear
3:58 AM 52.5 °F 51.1 °F 95% 29.99 in 10.0 mi NNW 1.2 mph - N/A   Clear
4:58 AM 50.0 °F 49.8 °F 99% 30.00 in 10.0 mi NNW 4.6 mph - N/A   Clear
5:58 AM 50.2 °F 49.8 °F 99% 30.01 in 10.0 mi NW 4.6 mph - N/A   Clear
6:58 AM 49.6 °F 49.5 °F 99% 30.03 in 10.0 mi NNW 6.9 mph - N/A   Clear
7:58 AM 51.1 °F 50.9 °F 99% 30.04 in 10.0 mi NW 4.6 mph - N/A   Clear
8:58 AM 55.0 °F 52.2 °F 90% 30.05 in 10.0 mi NNE 3.5 mph - N/A   Clear
9:58 AM 60.1 °F 49.8 °F 69% 30.05 in 10.0 mi NE 5.8 mph - N/A   Clear
10:58 AM 63.9 °F 48.4 °F 57% 30.05 in 10.0 mi NE 8.1 mph - N/A   Clear
11:58 AM 66.6 °F 46.6 °F 49% 30.04 in 10.0 mi NNE 5.8 mph - N/A   Clear
12:58 PM 68.5 °F 46.2 °F 45% 30.02 in 10.0 mi North 8.1 mph - N/A   Clear
1:58 PM 70.3 °F 46.9 °F 43% 30.01 in 10.0 mi Variable 4.6 mph - N/A   Clear
2:58 PM 71.8 °F 46.4 °F 40% 29.98 in 10.0 mi NW 10.4 mph - N/A   Clear
3:58 PM 72.5 °F 47.3 °F 41% 29.96 in 10.0 mi Variable 1.2 mph - N/A   Clear
4:58 PM 72.1 °F 47.1 °F 41% 29.95 in 10.0 mi WNW 5.8 mph - N/A   Clear
5:58 PM 72.0 °F 47.1 °F 41% 29.94 in 10.0 mi Variable 2.3 mph - N/A   Clear
6:58 PM 69.1 °F 48.7 °F 48% 29.94 in 9.0 mi NW 3.5 mph - N/A   Clear
7:31 PM 62.6 °F 51.8 °F 68% 29.93 in 10.0 mi WSW 2.3 mph - N/A   Light Drizzle
7:40 PM 62.6 °F 51.8 °F 68% 29.93 in 10.0 mi SW 3.5 mph - N/A   Clear
7:58 PM 60.4 °F 51.8 °F 73% 29.94 in 10.0 mi South 4.6 mph - 0.00 in   Clear
8:58 PM 56.8 °F 53.1 °F 87% 29.96 in 10.0 mi South 3.5 mph - N/A   Clear
9:58 PM 55.0 °F 52.9 °F 92% 29.96 in 10.0 mi SSW 2.3 mph - N/A   Clear
10:58 PM 53.4 °F 53.2 °F 99% 29.96 in 10.0 mi East 1.2 mph - N/A   Clear
11:58 PM 51.1 °F 50.9 °F 99% 29.96 in 10.0 mi Calm Calm - N/A   Clear